Regional Weather Roundup
Issued by NWS Wakefield, VA

Home | Current Version | Previous Version | Graphics & Text | Print | Product List | Glossary On
Versions: 1 2 3 4 5 6 7 8 9 10 11 12 13 14 15 16 17 18 19 20 21 22 23 24 25 26 27 28 29 30 31 32 33 34 35 36 37 38 39 40 41 42 43 44 45 46 47 48 49 50
000
ASUS41 KAKQ 240015
RWRAKQ

REGIONAL WEATHER ROUNDUP
NATIONAL WEATHER SERVICE WAKEFIELD VA
800 PM EDT MON OCT 23 2017

Note: "fair" indicates few or no clouds below 12,000 feet with no
significant weather and/or obstructions to visibility. * = Denotes
station may not report precipitation (e.g., rain,snow,etc.),
thunder or fog.

VAZ042-051-052>054-056-240100-
NORTHERN VIRGINIA

CITY           SKY/WX    TMP DP  RH WIND       PRES   REMARKS
WASH NATIONAL  CLOUDY    73  65  75 SE16G24   29.89F
DULLES         CLOUDY    71  64  78 SE13G22   29.87F
FORT BELVOIR   CLOUDY    73  64  74 SE15G23   29.87F
QUANTICO       CLOUDY    73  66  78 SE20      29.88F
FREDERICKSBRG* CLOUDY    72  65  79 SE13      29.85F
STAFFORD*      CLOUDY    70  65  85 SE8       29.90F
WARRENTON      CLOUDY    72  60  67 SE13G21   29.85S
CULPEPER*      CLOUDY    72  61  68 SE5       29.87S
MANASSAS*      CLOUDY    71  64  78 SE14G22   29.86F
LEESBURG*      CLOUDY    72  64  78 SE13G20   29.88F
WINCHESTER     CLOUDY    68  61  77 SE15G26   29.84F
FRONT ROYAL*   MOCLDY    70  61  73 SE9G18    29.84F
LURAY*         CLOUDY    72  59  64 SE14G28   29.86R
$$

VAZ048-049-060>072-079>083-240100-
CENTRAL AND SOUTH CENTRAL VIRGINIA

CITY           SKY/WX    TMP DP  RH WIND       PRES   REMARKS
RICHMOND       CLOUDY    73  66  78 SE18G29   29.87F
CHESTERFIELD*  NOT AVBL
PETERSBURG*    PTCLDY    72  65  81 SE8G17    29.87F
HANOVER        PTCLDY    73  65  75 SE7       29.87F
TAPPAHANNOCK*  PTCLDY    73  62  68 SE13G20   29.91F
QUINTON*       FAIR      72  67  86 SE13G18   29.87F
CHARLOTTSVILLE CLOUDY    73  63  70 SE12      29.83F
GORDONSVILLE*  CLOUDY    70  63  78 NE3       29.84F
ORANGE*        CLOUDY    70  61  73 SE7       29.86R
LOUISA*        CLOUDY    70  61  73 SE5       29.85S
BUMPASS*       FAIR      70  65  84 S8        29.86S
FARMVILLE*     CLOUDY    74  63  68 S13       29.81F
CREWE*         CLOUDY    73  63  71 SE18G29   29.84F
FORT PICKETT*  CLOUDY    72  63  72 S13G21    29.84F
CHASE CITY*    MOCLDY    72  61  68 SE13      29.83F
CLARKSVILLE*   MOCLDY    72  63  73 SE7G16    29.82S
SOUTH HILL*    CLOUDY    72  65  78 S13G21    29.91R
LAWRENCEVILLE* FAIR      72  64  74 SE12G21   29.85F
EMPORIA*       CLOUDY    72  63  73 E17G25    29.86F
$$

VAZ088>098-240100-
SOUTHEAST VIRGINIA

CITY           SKY/WX    TMP DP  RH WIND       PRES   REMARKS
NORFOLK        CLOUDY    74  66  76 S13G21    29.96S
VIRGINIA BEACH CLOUDY    73  63  70 S14G20    29.96F
NORFOLK NAVAL  CLOUDY    73  64  73 S14G20    29.96F
WEST POINT*    MOCLDY    72  68  86 SE12      29.91F
SALUDA*        FAIR      71  69  90 SE12G20   29.93F
NEWPORT NEWS   LGT RAIN  74  64  71 SE14G28   29.93F
LANGLEY AFB    CLOUDY    74  65  74 S13G18    29.94F
FORT EUSTIS    CLOUDY    73  65  75 SE13G22   29.90F
WILLIAMSBURG*  CLOUDY    73  66  78 SE15G22   29.92F
HR EXEC AP*    NOT AVBL
FRANKLIN*      MOCLDY    72  65  79 SE12G20   29.92F
US460-WAKEFLD  CLOUDY    73  66  78 SE12G20   29.90F
$$

VAZ020-022-025-037-045-240100-
WEST CENTRAL AND SOUTHWEST VIRGINIA

CITY           SKY/WX    TMP DP  RH WIND       PRES   REMARKS
STAUNTON*      RAIN      67  59  74 S15G22    29.85S
WAYNESBORO*    CLOUDY    64  64  99 SE9G16    29.84S
HOT SPRINGS VA HVY RAIN  48  48 100 SE15G32   29.82F VSB<1/4
LYNCHBURG      HVY RAIN  64  61  90 S7        29.83R
DANVILLE       RAIN      65  65 100 CALM      29.81F FOG
SOUTH BOSTON*  CLOUDY    72  59  63 SE9       29.82S
MARTINSVILLE   HVY RAIN  60  58  92 S5        29.82F
ROANOKE        LGT RAIN  64  60  87 S8        29.83R
BLACKSBURG     LGT RAIN  61  58  92 SW3       29.84S
DUBLIN*        CLOUDY    58  58  99 W7        29.83R
MARION*        MOCLDY    55  52  90 W3        29.86S
HILLSVILLE*    MOCLDY    55  50  85 CALM      29.82F
RICHLANDS*     MOCLDY    53  20  27 CALM      29.82S
WISE*          CLOUDY    54  54 100 SW9       29.83R
ABINGDON*      DRIZZLE   57  57 100 W8G20     29.84R
$$

MDZ021>025-VAZ099-100-240100-
SOUTHERN MARYLAND AND THE DELMARVA PENINSULA

CITY           SKY/WX    TMP DP  RH WIND       PRES   REMARKS
PATUXENT RIVER CLOUDY    71  67  87 SE16G25   29.93F
BAY BRIDGE APT CLOUDY    72  64  78 SE16      29.94F
LEONARDTOWN    NOT AVBL
DOVER          MOCLDY    68  66  94 SE13      29.98F
GEORGETOWN     CLOUDY    70  65  84 SE13      30.00F
EASTON         MOCLDY    72  64  78 SE14      29.99F
CAMBRIDGE      CLOUDY    72  64  78 SE15      29.95F
SALISBURY      CLOUDY    71  66  84 SE15G22   29.97F
OCEAN CITY     CLOUDY    70  67  90 SE8       30.01F
WALLOPS ISLAND CLOUDY    69  69 100 SE15G24   29.99F
ACCOMACK*      CLOUDY    72  67  84 SE16G25   29.97F
$$

NCZ012>017-030>032-240100-
NORTH CENTRAL AND EASTERN NORTH CAROLINA

CITY           SKY/WX    TMP DP  RH WIND       PRES   REMARKS
ROANOKE RAPIDS MOCLDY    72  64  78 SE12G26   29.88F
RALEIGH        LGT RAIN  73  65  75 SE20G29   29.80F
ELIZABETH CITY CLOUDY    74  68  81 SE13G18   29.97F
AHOSKIE*       CLOUDY    73  66  79 S16G23    29.92F
EDENTON*       CLOUDY    75  68  79 S8G16     29.96F
CURRITUCK*     CLOUDY    73  67  81 S5        29.99S
KILL DEVIL HLS CLOUDY    74  66  77 SE8G16    29.99F
MANTEO         CLOUDY   N/A N/A N/A S13G20    30.01F
CAPE HATTERAS  CLOUDY    77  69  76 S20G29    30.02S
TARBORO*       NOT AVBL
GOLDSBORO      CLOUDY    74  69  85 SE8       29.88S
WASHINGTON     CLOUDY    71  68  91 SE13G18   29.94F
GREENVILLE     MOCLDY    70  70 100 SE12      29.94F
NEW BERN       CLOUDY    71  71 100 SE10      29.95F
WILMINGTON     PTCLDY    77  70  79 S13G25    29.92S
$$

VAZ048-240100-
ELSEWHERE

CITY           SKY/WX    TMP DP  RH WIND       PRES   REMARKS
HARRISBURG PA  CLOUDY    69  64  84 SE15      29.91F
BALTIMORE      CLOUDY    72  64  76 SE15G23   29.93F
ANNAPOLIS      CLOUDY    72  68  87 SE20      29.93F
ANDREWS AFB    CLOUDY    71  64  77 SE16G22   29.89F
PHILADELPHIA   CLOUDY    70  64  81 SE12      30.01F
HENDERSON NC   CLOUDY    69  60  71 SE10G21   29.84R
GREENSBORO     TSTM      63  61  93 S18G33    29.80F FOG
ROCKY MOUNT    CLOUDY    72  69  90 SE10G21   29.87F
$$

VAZ100-240100-
MARINE

STATION/POSITION TIME  TEMP    WIND        PRES    WAVE   SWELL
                       AIR SEA DIR/SP/G            HT/PER HT/PER
                 (UTC) (F)     (DEG/KT/KT) (MB)    (FT/S) (FT/S)
BRANDYWINE LGT   2342                      1016.1F
CAPE MAY NJ      2342      67              1015.8F
LEWES DE         2342      67              1015.7F
15NM E FENWICK I 2350   70 68  120/ 17/ 19 1016.7F   3/ 5   2/ 9
OCEAN-CITY-INLET 2342      69              1016.5F
WACHAPREAGUE VA  2342      71              1015.2F
THOMAS POINT MD  0000   72 68  140/ 22/ 24   N/A
GOOSES REEF MD   0000   72 69  190/ 21/ 25 1013.3    3/ 3
COVE POINT MD    2342                      1014.3F
SOLOMONS ISLAND  2342      70              1013.4F
BISHOPS HEAD MD  2342      69              1014.4F
PINEY POINT MD   2330          160/ 21/ 23   N/A
POTOMAC MD       0000   71 70  150/ 19/ 25 1012.9    3/ 3
CAMBRIDGE MD     2342      68              1015.0F
LEWISETTA VA     2342      68              1013.5F
RAPPAHANNOCK LGT 2342                      1014.9F
STINGRAY PT      0000   72 69  170/ 19/ 23 1014.1    3/ 3
YORK RVR RNG VA  2342                      1014.5S
YORKTOWN VA      2342      70              1013.3F
JAMESTOWN VA     0000      71  150/ 17/ 21   N/A     1/ 3
DOMINION TERM VA 2342                      1014.2S
KIPTOPEKE VA     2342      69                N/A
CAPE HENRY VA    2330   72     160/ 11/ 18   N/A
WILLOUBY STN VA  2342                      1014.3R
S CRANEY ISL VA  2342                      1014.0F
CAPE HENRY BUOY  0000      70                N/A     4/ 5
1ST LANDING BUOY 0000   73 70              1014.3    2/ 3
CAPE CHARLES BUO 2351      71                N/A     4/ 4
64NM E OF VA BCH 2350   74 69  170/ 21/ 25 1016.6F   6/ 6   2/ 8
DUCK PIER NC     2342      70              1014.9F
44056 DUCK FRF   0000      71                N/A     4/ 6
OREGON INLET NC  2342      72              1016.1F
HATTERAS NC      2342      74              1016.2F
DIAMOND SHLS NC  2350   79 80  160/ 23/ 27 1016.2F   6/ 6   2/ 9
CAPE LOOKOUT NC  0000   75     150/ 25/ 28 1013.9F
$$



USA.gov is the U.S. government's official web portal to all federal, state and local government web resources and services.